Regional Weather Roundup
Issued by NWS

Home | Current Version | Previous Version | Text Only | Print | Product List | Glossary Off
Versions: 1 2 3 4 5 6 7 8 9 10 11 12 13 14 15 16 17 18 19 20 21 22 23 24 25 26 27 28 29 30 31 32 33 34 35 36 37 38 39 40 41 42 43 44 45 46 47 48 49 50

000
ASUS43 KOAX 210202
RWRNE

WEATHER ROUNDUP FOR NEBRASKA
NATIONAL WEATHER SERVICE OMAHA NE
800 PM CST SAT DEC 20 2014

NOTES: SATELLITE DATA IS BEING USED TO AUGMENT CLOUD COVER ABOVE
       12000 FEET.
       "FAIR" INDICATES FEW OR NO CLOUDS BELOW 12,000 FEET WITH NO
       SIGNIFICANT WEATHER AND/OR OBSTRUCTIONS TO VISIBILITY.

  * THESE STATIONS DO NOT REPORT WEATHER SUCH AS RAIN...SNOW OR FOG.

NEZ001>004-019>022-054>056-210300-
NEBRASKA PANHANDLE

CITY           SKY/WX    TMP DP  RH WIND       PRES   REMARKS
SCOTTSBLUFF    MOCLDY    30  22  72 NW3       29.92S
ALLIANCE       CLEAR     26  24  92 S3        29.90S
CHADRON        PTCLDY    29  25  85 W5        29.90S WCI  24
SIDNEY         MOCLDY    31  25  78 SW10      29.94F WCI  22
$$

NEZ057>060-069>072-079>082-210300-
SOUTHWEST NEBRASKA

CITY           SKY/WX    TMP DP  RH WIND       PRES   REMARKS
NORTH PLATTE   CLEAR     27  24  89 CALM      29.94S
IMPERIAL       PTCLDY    34  26  72 SW5       29.95S WCI  30
MCCOOK         CLEAR     33  28  81 SW10      29.95F WCI  25
$$

NEZ005>010-023>029-035>040-094-210300-
NORTH CENTRAL NEBRASKA

CITY           SKY/WX    TMP DP  RH WIND       PRES   REMARKS
VALENTINE      CLEAR     26  23  88 W5        29.90F WCI  20
BROKEN BOW     CLEAR     30  27  88 CALM      29.93S
$$

NEZ041-046>049-061>064-073>077-083>087-210300-
SOUTH CENTRAL NEBRASKA

CITY           SKY/WX    TMP DP  RH WIND       PRES   REMARKS
GRAND ISLAND   PTCLDY    31  30  96 S5        29.99F FOG     WCI  26
HASTINGS       PTCLDY    33  31  92 S7        29.97F WCI  27
HEBRON         MOCLDY    32  31  95 CALM      30.01F FOG
KEARNEY *      PTCLDY    28  27  93 SE7       29.96F WCI  21
$$

NEZ011>018-030>034-042>045-210300-
NORTHEAST NEBRASKA

CITY           SKY/WX    TMP DP  RH WIND       PRES   REMARKS
NORFOLK        CLOUDY    32  30  92 S12       29.99F FOG     WCI  23
COLUMBUS *     CLOUDY    32  28  86 S8        30.03S WCI  25
TEKAMAH        CLOUDY    33  31  92 SE10      30.06F FOG     WCI  25
$$

NEZ050>053-065>068-078-088>093-210300-
SOUTHEAST NEBRASKA

CITY           SKY/WX    TMP DP  RH WIND       PRES   REMARKS
LINCOLN        CLOUDY    35  33  92 S12       30.05F FOG     WCI  27
OMAHA EPPLEY   CLOUDY    35  32  88 SE8       30.07F FOG     WCI  29
FALLS CITY     CLOUDY    35  32  88 E3        30.09S FOG
$$

NEZ044-045-051>053-067-210300-
OMAHA AREA

CITY           SKY/WX    TMP DP  RH WIND       PRES   REMARKS
OMAHA EPPLEY   CLOUDY    35  32  88 SE8       30.07F FOG     WCI  29
OFFUTT AFB     CLOUDY    34  32  92 SE10      30.06F WCI  26
$$



USA.gov is the U.S. government's official web portal to all federal, state and local government web resources and services.